COSMOS 1275 DEB

Satellite information

Favourite Embed

Satellite Type and Status

DEBRISIN ORBIT

Key statistics

Satellite COSMOS 1275 DEB at a glance.

Uptime

16164

Days in orbit

Revolutions

≈ 14.0

Per day

Orbit

LEO

Low Earth Orbit

Inclination

82.9

Latest

Satellite identification and parameters

Extended collection of information and parameters for COSMOS 1275 DEB.

Object identification

Identified? True

Debris? True

Object name: COSMOS 1275 DEB

International designator: 1981-053QQ

Object number (NORAD): 42128

Object ID (CCSDS): 42128

Country: COMMONWEALTH OF INDEPENDENT STATES (CIS)

Current information (Y/N): Y

RCS size: SMALL

Orbital parameters

Period: 103.11 minutes

Inclination: 82.93 deg

SMA: 7283.84 km

Apoapsis: 926.015 km

Periapsis: 885.395 km

RAAN: 199.0498 deg

Eccentricy: 0.00278832

Argument of periapsis: 36.4592 deg

Mean anomaly: 336.7869 deg

Mean motion: 13.96568278 rev/day

Mean motion (dot): 0.00001808 rev/day2

B* drag term: 0.0012918908 1/REarth

Two-line elements (TLE)

Creation date: Sept. 3, 2025, 10:15 a.m.

Reference frame: TEME

Reference center: EARTH

Epoch: Sept. 3, 2025, 3:52 a.m. UTC

TLE line 0: 0 COSMOS 1275 DEB

TLE line 1: 1 42128U 81053QQ 25246.16165414 .00001808 00000-0 12919-2 0 9992

TLE line 2: 2 42128 82.9300 199.0498 0027883 36.4592 336.7869 13.96568278599772

Live tracking on map

Real-time ground track for satellite COSMOS 1275 DEB.

In-orbit conjunctions

A list of the most updated potential collisions computed for object COSMOS 1275 DEB.

Target Orbit TCA Probability of collision Miss distance Type
METEOR 1-12 LEO 2025-02-06 15:00:10 0.0001120763 578.0 (m) PAYLOAD
COSMOS 2251 DEB LEO 2024-06-29 18:05:42 0.0002202278 87.0 (m) DEBRIS

Associated space launch

Navigation satellite providing location information for the Tsiklon-B navigation system

COSMOS 1275 DEB was lifted into orbit during the mission ‘Kosmos-3M | Parus 27’, on board a Kosmos-3M space rocket.

The launch took place on June 4, 1981, 3:41 p.m. from 132/2.

For more information about the launch, click the button.

Launch to space Kosmos-3M | Parus 27
Kosmos-3M | Parus 27

Agency: N/A

Status: Launch Successful

Launch date: June 4, 1981, 3:41 p.m. UTC

Rocket: Kosmos-3M

Launch pad: 132/2

Location: Plesetsk Cosmodrome, Russian Federation

...

Latest news about this satellite

There are no fresh news available about this satellite. Check back as we update our databases every day.


Newsletter sign-up

Weekly statistics, charts and insights to help you stay on top of the space industry.